NORTHEAST SUFFOLK  -  Air Quality Alert Air Quality Alert        NORTHERN NASSAU  -  Air Quality Alert Air Quality Alert        NORTHERN QUEENS  -  Air Quality Alert Air Quality Alert        NORTHWEST SUFFOLK  -  Air Quality Alert Air Quality Alert        SOUTHEAST SUFFOLK  -  Air Quality Alert Air Quality Alert        SOUTHERN NASSAU  -  Air Quality Alert Air Quality Alert        SOUTHERN QUEENS  -  Air Quality Alert Air Quality Alert        SOUTHWEST SUFFOLK  -  Air Quality Alert Air Quality Alert      

Active alerts

Northern Queens
  Details for Northern Queens Air Quality Alert
Southern Queens
  Details for Southern Queens Air Quality Alert
Northern Nassau
  Details for Northern Nassau Air Quality Alert
Southern Nassau
  Details for Southern Nassau Air Quality Alert
Northwest Suffolk
  Details for Northwest Suffolk Air Quality Alert
Southwest Suffolk
  Details for Southwest Suffolk Air Quality Alert
Northeast Suffolk
  Details for Northeast Suffolk Air Quality Alert
Southeast Suffolk
  Details for Southeast Suffolk Air Quality Alert


WXM80 ListenWXM80 Stop

You find our weather info also at:

UK Metoffice

WeatherCloud

Weather Underground

Northeastern Weather Network

AWEKAS

Citizen Weather Observer Program (CWOP)

HAMweather, WeatherForYou, PWS Weather


Weather Underground History page Text

Daily Summary for January 3, 2017 Units:  English    Metric   Both
« Previous Day
Next Day »
Daily Weekly Monthly Yearly Custom
  High: Low: Average:
Temperature: 43.6 °F 38.6 °F 41.5 °F
Dew Point: 43.1 °F 37.8 °F 41 °F
Humidity: 98 % 97 % 98 %
Wind Speed: 17.3 mph 0.0 mph 9.2 mph
Wind Gust: 29.0 mph - -
Wind:- - East
Pressure: 30.24 in 29.42 in -
Precipitation: 0.00 in    
Historical Graphs
 
 
Tabular Data for January 3, 2017
Time Temperature Dew Point Pressure Wind Wind Speed Wind Gust Humidity Rainfall Rate (Hourly)
00:01 38.6 °F 37.8 °F 30.24 in ENE 9.6 mph 29.0 mph 97 % 0.01 in
00:06 38.6 °F 37.8 °F 30.24 in NE 9.7 mph 29.0 mph 97 % 0.01 in
00:11 38.6 °F 37.8 °F 30.23 in East 11.7 mph 29.0 mph 97 % 0.01 in
00:16 38.6 °F 37.8 °F 30.23 in NE 8.2 mph 29.0 mph 97 % 0.01 in
00:21 38.6 °F 37.8 °F 30.23 in ENE 9.1 mph 29.0 mph 97 % 0.00 in
00:26 38.6 °F 37.8 °F 30.22 in ENE 9.0 mph 29.0 mph 97 % 0.00 in
00:31 38.6 °F 37.8 °F 30.22 in NE 9.2 mph 29.0 mph 97 % 0.00 in
00:37 38.7 °F 37.9 °F 30.21 in NE 8.1 mph 29.0 mph 97 % 0.00 in
00:42 38.7 °F 37.9 °F 30.21 in East 8.0 mph 29.0 mph 97 % 0.00 in
00:47 38.9 °F 38.1 °F 30.21 in ENE 8.5 mph 29.0 mph 97 % 0.00 in
00:52 39.1 °F 38.3 °F 30.21 in NE 9.1 mph 29.0 mph 97 % 0.00 in
00:57 39.4 °F 38.6 °F 30.20 in ENE 10.8 mph 29.0 mph 97 % 0.00 in
01:02 39.7 °F 38.9 °F 30.20 in East 10.2 mph 29.0 mph 97 % 0.00 in
01:07 39.8 °F 39.0 °F 30.20 in ENE 10.2 mph 29.0 mph 97 % 0.00 in
01:12 39.9 °F 39.1 °F 30.20 in East 9.5 mph 29.0 mph 97 % 0.00 in
01:17 40.0 °F 39.2 °F 30.20 in ENE 7.9 mph 29.0 mph 97 % 0.00 in
01:22 40.1 °F 39.3 °F 30.20 in ENE 9.9 mph 29.0 mph 97 % 0.00 in
01:27 40.1 °F 39.3 °F 30.20 in ENE 10.6 mph 29.0 mph 97 % 0.00 in
01:32 40.1 °F 39.3 °F 30.20 in ENE 9.6 mph 29.0 mph 97 % 0.00 in
01:37 40.1 °F 39.3 °F 30.20 in ENE 7.9 mph 29.0 mph 97 % 0.01 in
01:42 40.2 °F 39.4 °F 30.20 in East 7.6 mph 29.0 mph 97 % 0.01 in
01:47 40.3 °F 39.5 °F 30.20 in ENE 9.0 mph 29.0 mph 97 % 0.01 in
01:52 40.4 °F 39.6 °F 30.20 in East 7.1 mph 29.0 mph 97 % 0.01 in
01:58 40.5 °F 39.7 °F 30.20 in ENE 8.7 mph 29.0 mph 97 % 0.01 in
02:03 40.4 °F 39.6 °F 30.20 in East 8.8 mph 29.0 mph 97 % 0.01 in
02:08 40.4 °F 39.6 °F 30.20 in East 10.2 mph 29.0 mph 97 % 0.01 in
02:13 40.4 °F 39.6 °F 30.20 in ENE 9.2 mph 29.0 mph 97 % 0.01 in
02:18 40.3 °F 39.5 °F 30.20 in ENE 8.2 mph 29.0 mph 97 % 0.01 in
02:23 40.3 °F 39.5 °F 30.20 in ENE 8.8 mph 29.0 mph 97 % 0.01 in
02:28 40.3 °F 39.5 °F 30.19 in East 10.7 mph 29.0 mph 97 % 0.02 in
02:33 40.3 °F 39.5 °F 30.19 in ENE 9.1 mph 29.0 mph 97 % 0.02 in
02:38 40.3 °F 39.5 °F 30.18 in ENE 13.0 mph 29.0 mph 97 % 0.01 in
02:43 40.2 °F 39.4 °F 30.18 in ENE 11.3 mph 29.0 mph 97 % 0.01 in
02:48 40.2 °F 39.4 °F 30.17 in ENE 10.4 mph 29.0 mph 97 % 0.01 in
02:53 40.2 °F 39.4 °F 30.17 in ENE 11.0 mph 29.0 mph 97 % 0.01 in
02:58 40.1 °F 39.3 °F 30.17 in ENE 10.6 mph 29.0 mph 97 % 0.01 in
03:03 40.1 °F 39.3 °F 30.17 in ENE 11.1 mph 29.0 mph 97 % 0.01 in
03:08 40.1 °F 39.3 °F 30.17 in ENE 10.6 mph 29.0 mph 97 % 0.01 in
03:13 40.0 °F 39.2 °F 30.17 in ENE 11.2 mph 29.0 mph 97 % 0.01 in
03:19 40.0 °F 39.2 °F 30.16 in East 8.8 mph 29.0 mph 97 % 0.01 in
03:24 39.8 °F 39.0 °F 30.16 in NE 10.7 mph 29.0 mph 97 % 0.01 in
03:29 39.7 °F 38.9 °F 30.16 in ENE 8.0 mph 29.0 mph 97 % 0.00 in
03:34 39.6 °F 38.8 °F 30.15 in ENE 9.3 mph 29.0 mph 97 % 0.00 in
03:39 39.5 °F 38.7 °F 30.15 in ENE 11.6 mph 29.0 mph 97 % 0.00 in
03:44 39.5 °F 38.7 °F 30.15 in ENE 12.4 mph 29.0 mph 97 % 0.00 in
03:49 39.4 °F 38.6 °F 30.14 in ENE 10.5 mph 29.0 mph 97 % 0.00 in
03:54 39.4 °F 38.6 °F 30.14 in NE 12.5 mph 29.0 mph 97 % 0.00 in
03:59 39.4 °F 38.6 °F 30.13 in ENE 9.9 mph 29.0 mph 97 % 0.00 in
04:04 39.4 °F 38.6 °F 30.13 in ENE 14.0 mph 22.0 mph 97 % 0.00 in
04:09 39.4 °F 38.6 °F 30.13 in ENE 10.0 mph 18.0 mph 97 % 0.00 in
04:14 39.4 °F 38.6 °F 30.13 in ENE 13.0 mph 20.0 mph 97 % 0.00 in
04:19 39.4 °F 38.6 °F 30.12 in ENE 14.6 mph 29.0 mph 97 % 0.00 in
04:24 39.3 °F 38.5 °F 30.12 in ENE 12.0 mph 22.0 mph 97 % 0.00 in
04:29 39.3 °F 38.5 °F 30.12 in ENE 10.4 mph 29.0 mph 97 % 0.00 in
04:34 39.3 °F 38.5 °F 30.12 in ENE 13.0 mph 21.0 mph 97 % 0.00 in
04:39 39.3 °F 38.5 °F 30.12 in East 12.4 mph 29.0 mph 97 % 0.00 in
04:44 39.3 °F 38.5 °F 30.12 in ENE 13.1 mph 29.0 mph 97 % 0.00 in
04:49 39.3 °F 38.5 °F 30.11 in ENE 12.0 mph 17.0 mph 97 % 0.00 in
04:54 39.3 °F 38.5 °F 30.11 in ENE 10.0 mph 17.0 mph 97 % 0.00 in
04:59 39.3 °F 38.5 °F 30.11 in ENE 13.2 mph 29.0 mph 97 % 0.00 in
05:04 39.2 °F 38.4 °F 30.11 in East 10.8 mph 29.0 mph 97 % 0.00 in
05:09 39.2 °F 38.4 °F 30.10 in ENE 12.0 mph 17.0 mph 97 % 0.00 in
05:14 39.2 °F 38.4 °F 30.10 in ENE 14.0 mph 18.0 mph 97 % 0.00 in
05:19 39.2 °F 38.4 °F 30.10 in ENE 12.0 mph 17.0 mph 97 % 0.00 in
05:24 39.2 °F 38.4 °F 30.10 in ENE 12.0 mph 20.0 mph 97 % 0.00 in
05:29 39.2 °F 38.4 °F 30.10 in ENE 14.0 mph 18.0 mph 97 % 0.00 in
05:34 39.2 °F 38.4 °F 30.10 in ENE 10.6 mph 29.0 mph 97 % 0.00 in
05:39 39.2 °F 38.4 °F 30.10 in ENE 9.0 mph 16.0 mph 97 % 0.00 in
05:44 39.2 °F 38.4 °F 30.10 in ENE 10.0 mph 17.0 mph 97 % 0.00 in
05:49 39.2 °F 38.4 °F 30.10 in ENE 12.5 mph 29.0 mph 97 % 0.00 in
05:54 39.2 °F 38.4 °F 30.09 in ENE 12.0 mph 18.0 mph 97 % 0.00 in
05:59 39.2 °F 38.4 °F 30.09 in NE 12.0 mph 29.0 mph 97 % 0.00 in
06:04 39.2 °F 38.4 °F 30.09 in NE 11.1 mph 29.0 mph 97 % 0.00 in
06:09 39.2 °F 38.4 °F 30.09 in East 10.0 mph 29.0 mph 97 % 0.00 in
06:14 39.2 °F 38.4 °F 30.09 in NE 10.6 mph 29.0 mph 97 % 0.00 in
06:19 39.3 °F 38.8 °F 30.09 in ENE 9.9 mph 29.0 mph 98 % 0.00 in
06:24 39.3 °F 38.8 °F 30.08 in ENE 12.9 mph 29.0 mph 98 % 0.00 in
06:30 39.5 °F 38.7 °F 30.07 in NE 10.7 mph 29.0 mph 97 % 0.00 in
06:35 39.5 °F 38.7 °F 30.07 in East 9.5 mph 29.0 mph 97 % 0.00 in
06:40 39.7 °F 38.9 °F 30.07 in East 10.0 mph 29.0 mph 97 % 0.00 in
06:45 40.0 °F 39.5 °F 30.06 in ENE 10.8 mph 29.0 mph 98 % 0.00 in
06:50 40.2 °F 39.7 °F 30.06 in ENE 11.7 mph 29.0 mph 98 % 0.00 in
06:55 40.3 °F 39.8 °F 30.06 in East 10.3 mph 29.0 mph 98 % 0.00 in
07:00 40.4 °F 39.9 °F 30.06 in ENE 11.2 mph 29.0 mph 98 % 0.00 in
07:05 40.4 °F 39.9 °F 30.05 in ENE 10.0 mph 29.0 mph 98 % 0.00 in
07:10 40.5 °F 40.0 °F 30.05 in East 12.2 mph 29.0 mph 98 % 0.00 in
07:15 40.5 °F 40.0 °F 30.05 in ENE 9.1 mph 29.0 mph 98 % 0.00 in
07:20 40.6 °F 40.1 °F 30.04 in ENE 13.6 mph 29.0 mph 98 % 0.00 in
07:25 40.6 °F 40.1 °F 30.04 in East 8.6 mph 29.0 mph 98 % 0.00 in
07:30 40.6 °F 40.1 °F 30.04 in ENE 11.3 mph 29.0 mph 98 % 0.00 in
07:35 40.7 °F 40.2 °F 30.04 in ENE 8.7 mph 29.0 mph 98 % 0.00 in
07:40 40.8 °F 40.3 °F 30.03 in ENE 10.8 mph 29.0 mph 98 % 0.00 in
07:45 40.8 °F 40.3 °F 30.04 in ENE 10.9 mph 29.0 mph 98 % 0.00 in
07:50 40.9 °F 40.4 °F 30.03 in East 13.4 mph 29.0 mph 98 % 0.00 in
07:55 41.0 °F 40.5 °F 30.02 in East 12.4 mph 29.0 mph 98 % 0.00 in
08:01 41.0 °F 40.5 °F 30.02 in NE 12.9 mph 29.0 mph 98 % 0.00 in
08:06 41.1 °F 40.6 °F 30.01 in NE 11.2 mph 29.0 mph 98 % 0.00 in
08:11 41.1 °F 40.6 °F 30.01 in ENE 12.0 mph 29.0 mph 98 % 0.00 in
08:16 41.1 °F 40.6 °F 30.01 in East 11.7 mph 29.0 mph 98 % 0.00 in
08:21 41.2 °F 40.7 °F 30.01 in East 12.1 mph 29.0 mph 98 % 0.00 in
08:26 41.2 °F 40.7 °F 30.02 in ENE 11.4 mph 29.0 mph 98 % 0.00 in
08:31 41.2 °F 40.7 °F 30.03 in East 11.1 mph 29.0 mph 98 % 0.00 in
08:36 41.2 °F 40.7 °F 30.03 in ENE 12.7 mph 29.0 mph 98 % 0.00 in
08:41 41.3 °F 40.8 °F 30.02 in ENE 11.1 mph 29.0 mph 98 % 0.00 in
08:46 41.3 °F 40.8 °F 30.01 in NE 12.0 mph 29.0 mph 98 % 0.00 in
08:51 41.3 °F 40.8 °F 30.01 in East 10.7 mph 29.0 mph 98 % 0.00 in
08:56 41.4 °F 40.9 °F 30.01 in East 10.5 mph 29.0 mph 98 % 0.00 in
09:01 41.4 °F 40.9 °F 30.00 in ENE 10.7 mph 29.0 mph 98 % 0.00 in
09:06 41.5 °F 41.0 °F 30.00 in East 10.7 mph 29.0 mph 98 % 0.00 in
09:12 41.5 °F 41.0 °F 30.00 in ENE 11.4 mph 29.0 mph 98 % 0.00 in
09:17 41.5 °F 41.0 °F 30.00 in ENE 12.6 mph 29.0 mph 98 % 0.00 in
09:22 41.5 °F 41.0 °F 30.00 in ENE 12.7 mph 29.0 mph 98 % 0.00 in
09:27 41.6 °F 41.1 °F 29.99 in ENE 13.1 mph 29.0 mph 98 % 0.00 in
09:32 41.6 °F 41.1 °F 29.99 in ENE 12.6 mph 29.0 mph 98 % 0.00 in
09:37 41.6 °F 41.1 °F 30.00 in NE 12.9 mph 29.0 mph 98 % 0.00 in
09:42 41.7 °F 41.2 °F 30.00 in East 12.1 mph 29.0 mph 98 % 0.00 in
09:47 41.8 °F 41.3 °F 29.99 in East 9.8 mph 29.0 mph 98 % 0.00 in
09:52 41.8 °F 41.3 °F 29.99 in ENE 11.3 mph 29.0 mph 98 % 0.00 in
09:57 41.8 °F 41.3 °F 29.99 in East 10.4 mph 29.0 mph 98 % 0.00 in
10:02 41.9 °F 41.4 °F 29.98 in ENE 9.9 mph 29.0 mph 98 % 0.00 in
10:07 41.9 °F 41.4 °F 29.98 in ENE 11.8 mph 29.0 mph 98 % 0.00 in
10:12 41.9 °F 41.4 °F 29.97 in ENE 11.8 mph 29.0 mph 98 % 0.00 in
10:17 42.0 °F 41.5 °F 29.97 in ENE 13.6 mph 29.0 mph 98 % 0.00 in
10:22 42.0 °F 41.5 °F 29.96 in East 12.0 mph 29.0 mph 98 % 0.00 in
10:28 42.0 °F 41.5 °F 29.96 in ENE 13.3 mph 29.0 mph 98 % 0.00 in
10:33 42.0 °F 41.5 °F 29.95 in ENE 12.1 mph 29.0 mph 98 % 0.00 in
10:38 42.1 °F 41.6 °F 29.95 in ENE 10.6 mph 29.0 mph 98 % 0.00 in
10:43 42.1 °F 41.6 °F 29.94 in East 12.4 mph 29.0 mph 98 % 0.00 in
10:48 42.2 °F 41.7 °F 29.94 in ENE 12.7 mph 29.0 mph 98 % 0.00 in
10:53 42.2 °F 41.7 °F 29.93 in East 10.3 mph 29.0 mph 98 % 0.00 in
10:58 42.2 °F 41.7 °F 29.92 in East 12.9 mph 29.0 mph 98 % 0.00 in
11:03 42.3 °F 41.8 °F 29.92 in ENE 12.9 mph 29.0 mph 98 % 0.00 in
11:08 42.3 °F 41.8 °F 29.92 in ENE 10.9 mph 29.0 mph 98 % 0.00 in
11:13 42.3 °F 41.8 °F 29.91 in ENE 11.5 mph 29.0 mph 98 % 0.00 in
11:18 42.2 °F 41.7 °F 29.90 in ENE 12.7 mph 29.0 mph 98 % 0.00 in
11:23 42.2 °F 41.7 °F 29.90 in ENE 12.5 mph 29.0 mph 98 % 0.00 in
11:28 42.2 °F 41.7 °F 29.90 in East 10.7 mph 29.0 mph 98 % 0.00 in
11:33 42.2 °F 41.7 °F 29.88 in East 11.5 mph 29.0 mph 98 % 0.00 in
11:38 42.2 °F 41.7 °F 29.87 in ESE 9.9 mph 29.0 mph 98 % 0.00 in
11:43 42.2 °F 41.7 °F 29.86 in ENE 11.2 mph 29.0 mph 98 % 0.00 in
11:48 42.2 °F 41.7 °F 29.86 in East 11.7 mph 29.0 mph 98 % 0.00 in
11:54 42.1 °F 41.6 °F 29.85 in ENE 11.4 mph 29.0 mph 98 % 0.00 in
11:59 42.2 °F 41.7 °F 29.85 in East 11.5 mph 29.0 mph 98 % 0.00 in
12:04 42.1 °F 41.6 °F 29.85 in East 12.2 mph 29.0 mph 98 % 0.00 in
12:09 42.2 °F 41.7 °F 29.84 in East 12.5 mph 29.0 mph 98 % 0.01 in
12:14 42.2 °F 41.7 °F 29.84 in East 13.1 mph 29.0 mph 98 % 0.01 in
12:19 42.2 °F 41.7 °F 29.83 in ENE 10.7 mph 29.0 mph 98 % 0.01 in
12:24 42.2 °F 41.7 °F 29.83 in East 10.3 mph 29.0 mph 98 % 0.01 in
12:29 42.2 °F 41.7 °F 29.82 in ENE 11.0 mph 29.0 mph 98 % 0.01 in
12:34 42.2 °F 41.7 °F 29.82 in East 10.7 mph 29.0 mph 98 % 0.01 in
12:39 42.3 °F 41.8 °F 29.81 in ENE 11.6 mph 29.0 mph 98 % 0.02 in
12:44 42.3 °F 41.8 °F 29.79 in ENE 13.0 mph 18.0 mph 98 % 0.00 in
12:49 42.3 °F 41.8 °F 29.79 in East 13.0 mph 29.0 mph 98 % 0.02 in
12:54 42.3 °F 41.8 °F 29.78 in ENE 13.0 mph 18.0 mph 98 % 0.00 in
12:59 42.4 °F 41.9 °F 29.78 in East 11.0 mph 29.0 mph 98 % 0.03 in
13:04 42.4 °F 41.9 °F 29.77 in East 14.0 mph 29.0 mph 98 % 0.02 in
13:14 42.4 °F 41.9 °F 29.76 in ENE 10.1 mph 29.0 mph 98 % 0.02 in
13:19 42.4 °F 41.9 °F 29.76 in ENE 11.5 mph 29.0 mph 98 % 0.03 in
13:25 42.5 °F 42.0 °F 29.75 in ENE 10.7 mph 29.0 mph 98 % 0.03 in
13:30 42.5 °F 42.0 °F 29.75 in ENE 10.8 mph 29.0 mph 98 % 0.03 in
13:35 42.5 °F 42.0 °F 29.75 in East 11.1 mph 29.0 mph 98 % 0.03 in
13:40 42.5 °F 42.0 °F 29.75 in ENE 10.8 mph 29.0 mph 98 % 0.03 in
13:45 42.5 °F 42.0 °F 29.74 in East 10.8 mph 29.0 mph 98 % 0.03 in
13:50 42.5 °F 42.0 °F 29.73 in East 12.8 mph 29.0 mph 98 % 0.04 in
13:55 42.6 °F 42.1 °F 29.72 in East 13.1 mph 29.0 mph 98 % 0.04 in
14:00 42.6 °F 42.1 °F 29.72 in East 12.2 mph 29.0 mph 98 % 0.03 in
14:05 42.6 °F 42.1 °F 29.71 in ENE 12.1 mph 29.0 mph 98 % 0.03 in
14:10 42.6 °F 42.1 °F 29.71 in East 11.5 mph 29.0 mph 98 % 0.03 in
14:15 42.7 °F 42.2 °F 29.70 in East 12.2 mph 29.0 mph 98 % 0.03 in
14:20 42.7 °F 42.2 °F 29.70 in NE 12.1 mph 29.0 mph 98 % 0.02 in
14:25 42.7 °F 42.2 °F 29.70 in ENE 12.3 mph 29.0 mph 98 % 0.02 in
14:30 42.7 °F 42.2 °F 29.69 in East 11.6 mph 29.0 mph 98 % 0.02 in
14:35 42.8 °F 42.3 °F 29.68 in ENE 12.2 mph 29.0 mph 98 % 0.02 in
14:41 42.8 °F 42.3 °F 29.68 in East 13.7 mph 29.0 mph 98 % 0.01 in
14:46 42.8 °F 42.3 °F 29.68 in ENE 11.5 mph 29.0 mph 98 % 0.01 in
14:51 42.8 °F 42.3 °F 29.68 in East 11.6 mph 29.0 mph 98 % 0.00 in
14:56 42.8 °F 42.3 °F 29.67 in ENE 12.2 mph 29.0 mph 98 % 0.00 in
15:01 42.9 °F 42.4 °F 29.67 in East 11.5 mph 29.0 mph 98 % 0.00 in
15:06 42.9 °F 42.4 °F 29.67 in ENE 12.7 mph 29.0 mph 98 % 0.00 in
15:11 42.9 °F 42.4 °F 29.66 in East 9.6 mph 29.0 mph 98 % 0.00 in
15:16 42.9 °F 42.4 °F 29.66 in ENE 9.9 mph 29.0 mph 98 % 0.00 in
15:21 42.9 °F 42.4 °F 29.66 in ENE 12.1 mph 29.0 mph 98 % 0.00 in
15:26 42.9 °F 42.4 °F 29.66 in East 10.3 mph 29.0 mph 98 % 0.01 in
15:31 42.9 °F 42.4 °F 29.66 in ENE 10.8 mph 29.0 mph 98 % 0.01 in
15:36 43.0 °F 42.5 °F 29.66 in ENE 9.4 mph 29.0 mph 98 % 0.01 in
15:41 43.0 °F 42.5 °F 29.65 in ENE 11.3 mph 29.0 mph 98 % 0.01 in
15:47 43.0 °F 42.5 °F 29.64 in ENE 10.8 mph 29.0 mph 98 % 0.02 in
15:52 43.0 °F 42.5 °F 29.64 in ENE 11.5 mph 29.0 mph 98 % 0.03 in
15:57 43.1 °F 42.6 °F 29.63 in East 11.8 mph 29.0 mph 98 % 0.03 in
16:02 43.1 °F 42.6 °F 29.62 in East 11.9 mph 29.0 mph 98 % 0.04 in
16:07 43.1 °F 42.6 °F 29.62 in ENE 11.6 mph 29.0 mph 98 % 0.05 in
16:12 43.1 °F 42.6 °F 29.61 in NE 10.6 mph 29.0 mph 98 % 0.05 in
16:17 43.1 °F 42.6 °F 29.61 in ENE 12.4 mph 29.0 mph 98 % 0.06 in
16:22 43.1 °F 42.6 °F 29.61 in East 10.7 mph 29.0 mph 98 % 0.07 in
16:27 43.1 °F 42.6 °F 29.61 in ENE 10.2 mph 29.0 mph 98 % 0.06 in
16:32 43.1 °F 42.6 °F 29.61 in ENE 12.8 mph 29.0 mph 98 % 0.07 in
16:37 43.2 °F 42.7 °F 29.61 in ENE 11.6 mph 29.0 mph 98 % 0.08 in
16:42 43.2 °F 42.7 °F 29.61 in East 10.5 mph 29.0 mph 98 % 0.09 in
16:47 43.2 °F 42.7 °F 29.61 in ENE 8.5 mph 29.0 mph 98 % 0.09 in
16:53 43.2 °F 42.7 °F 29.62 in ENE 9.7 mph 29.0 mph 98 % 0.08 in
16:58 43.2 °F 42.7 °F 29.61 in ENE 11.9 mph 29.0 mph 98 % 0.09 in
17:03 43.2 °F 42.7 °F 29.56 in East 17.3 mph 29.0 mph 98 % 0.09 in
17:08 43.2 °F 42.7 °F 29.56 in ENE 12.2 mph 29.0 mph 98 % 0.08 in
17:13 43.3 °F 42.8 °F 29.57 in ENE 9.3 mph 29.0 mph 98 % 0.09 in
17:18 43.3 °F 42.8 °F 29.57 in NE 11.0 mph 29.0 mph 98 % 0.09 in
17:23 43.3 °F 42.8 °F 29.57 in ENE 9.7 mph 29.0 mph 98 % 0.09 in
17:28 43.3 °F 42.8 °F 29.57 in ENE 9.2 mph 29.0 mph 98 % 0.08 in
17:33 43.4 °F 42.9 °F 29.57 in East 10.7 mph 29.0 mph 98 % 0.09 in
17:38 43.4 °F 42.9 °F 29.56 in ENE 8.9 mph 29.0 mph 98 % 0.10 in
17:43 43.4 °F 42.9 °F 29.56 in East 9.5 mph 29.0 mph 98 % 0.10 in
17:48 43.5 °F 43.0 °F 29.56 in ENE 9.8 mph 29.0 mph 98 % 0.12 in
17:53 43.5 °F 43.0 °F 29.56 in East 8.7 mph 29.0 mph 98 % 0.14 in
17:58 43.5 °F 43.0 °F 29.56 in ENE 12.8 mph 29.0 mph 98 % 0.14 in
18:03 43.6 °F 43.1 °F 29.56 in East 9.2 mph 29.0 mph 98 % 0.15 in
18:09 43.6 °F 43.1 °F 29.56 in ENE 8.6 mph 29.0 mph 98 % 0.15 in
18:14 43.6 °F 43.1 °F 29.56 in ENE 8.1 mph 29.0 mph 98 % 0.16 in
18:19 43.6 °F 43.1 °F 29.55 in East 9.2 mph 29.0 mph 98 % 0.16 in
18:24 43.6 °F 43.1 °F 29.55 in ENE 9.9 mph 29.0 mph 98 % 0.16 in
18:29 43.6 °F 43.1 °F 29.55 in ENE 9.5 mph 29.0 mph 98 % 0.16 in
18:34 43.5 °F 43.0 °F 29.54 in ENE 9.3 mph 29.0 mph 98 % 0.15 in
18:39 43.5 °F 43.0 °F 29.54 in ENE 8.3 mph 29.0 mph 98 % 0.14 in
18:44 43.5 °F 43.0 °F 29.53 in East 8.5 mph 29.0 mph 98 % 0.12 in
18:49 43.3 °F 42.8 °F 29.53 in ENE 6.4 mph 29.0 mph 98 % 0.10 in
18:54 43.1 °F 42.6 °F 29.53 in ENE 3.1 mph 29.0 mph 98 % 0.08 in
18:59 43.0 °F 42.5 °F 29.52 in NE 4.0 mph 29.0 mph 98 % 0.08 in
19:04 42.8 °F 42.3 °F 29.51 in NE 2.0 mph 8.0 mph 98 % 0.00 in
19:09 42.8 °F 42.2 °F 29.51 in NE 3.0 mph 7.0 mph 98 % 0.00 in
19:14 42.6 °F 42.1 °F 29.50 in ENE 8.3 mph 29.0 mph 98 % 0.04 in
19:19 42.5 °F 42.0 °F 29.50 in NE 4.9 mph 29.0 mph 98 % 0.03 in
19:24 42.5 °F 42.0 °F 29.50 in ENE 7.0 mph 29.0 mph 98 % 0.02 in
19:29 42.5 °F 42.0 °F 29.50 in ENE 7.4 mph 29.0 mph 98 % 0.01 in
19:34 42.5 °F 42.0 °F 29.50 in ENE 5.6 mph 29.0 mph 98 % 0.01 in
19:39 42.6 °F 42.1 °F 29.49 in ENE 3.5 mph 29.0 mph 98 % 0.01 in
19:45 42.6 °F 42.1 °F 29.49 in ENE 5.1 mph 29.0 mph 98 % 0.01 in
19:50 42.6 °F 42.1 °F 29.48 in ENE 2.4 mph 29.0 mph 98 % 0.01 in
19:55 42.6 °F 42.1 °F 29.48 in NE 2.7 mph 29.0 mph 98 % 0.01 in
20:00 42.6 °F 42.1 °F 29.49 in ENE 3.6 mph 29.0 mph 98 % 0.00 in
20:05 42.6 °F 42.1 °F 29.48 in ENE 3.9 mph 29.0 mph 98 % 0.00 in
20:10 42.5 °F 42.0 °F 29.48 in NNE 4.4 mph 29.0 mph 98 % 0.00 in
20:15 42.5 °F 42.0 °F 29.48 in NE 2.7 mph 29.0 mph 98 % 0.00 in
20:20 42.5 °F 42.0 °F 29.47 in ENE 2.7 mph 29.0 mph 98 % 0.00 in
20:25 42.5 °F 42.0 °F 29.47 in ENE 3.7 mph 29.0 mph 98 % 0.00 in
20:30 42.5 °F 42.0 °F 29.47 in ENE 2.6 mph 29.0 mph 98 % 0.00 in
20:35 42.4 °F 41.9 °F 29.47 in NE 3.3 mph 29.0 mph 98 % 0.00 in
20:40 42.4 °F 41.9 °F 29.46 in ENE 4.0 mph 29.0 mph 98 % 0.00 in
20:45 42.4 °F 41.9 °F 29.46 in ENE 3.5 mph 29.0 mph 98 % 0.00 in
20:51 42.4 °F 41.9 °F 29.46 in ENE 2.1 mph 29.0 mph 98 % 0.00 in
20:56 42.4 °F 41.9 °F 29.45 in ENE 3.1 mph 29.0 mph 98 % 0.00 in
21:01 42.4 °F 41.9 °F 29.46 in ENE 2.7 mph 29.0 mph 98 % 0.00 in
21:06 42.4 °F 41.9 °F 29.46 in ENE 2.1 mph 29.0 mph 98 % 0.00 in
21:11 42.3 °F 41.8 °F 29.45 in NE 1.8 mph 29.0 mph 98 % 0.00 in
21:16 42.3 °F 41.8 °F 29.45 in ENE 1.9 mph 29.0 mph 98 % 0.00 in
21:21 42.3 °F 41.8 °F 29.45 in Calm   29.0 mph 98 % 0.00 in
21:26 42.3 °F 41.8 °F 29.46 in NE 1.1 mph 29.0 mph 98 % 0.00 in
21:31 42.3 °F 41.8 °F 29.46 in NNE 3.5 mph 29.0 mph 98 % 0.00 in
21:36 42.4 °F 41.9 °F 29.45 in NNE 2.3 mph 29.0 mph 98 % 0.00 in
21:41 42.4 °F 41.9 °F 29.45 in NNE 1.6 mph 29.0 mph 98 % 0.00 in
21:46 42.4 °F 41.9 °F 29.45 in NNE 0.9 mph 29.0 mph 98 % 0.00 in
21:51 42.4 °F 41.9 °F 29.44 in NNE 2.0 mph 29.0 mph 98 % 0.00 in
21:57 42.4 °F 41.9 °F 29.45 in NNE 0.1 mph 29.0 mph 98 % 0.00 in
22:02 42.5 °F 42.0 °F 29.45 in Calm   29.0 mph 98 % 0.00 in
22:07 42.5 °F 42.0 °F 29.45 in North 1.5 mph 29.0 mph 98 % 0.00 in
22:12 42.5 °F 42.0 °F 29.45 in North 1.0 mph 29.0 mph 98 % 0.00 in
22:17 42.5 °F 42.0 °F 29.45 in Calm   29.0 mph 98 % 0.00 in
22:22 42.5 °F 42.0 °F 29.44 in North 2.2 mph 29.0 mph 98 % 0.00 in
22:27 42.5 °F 42.0 °F 29.44 in NNW 0.1 mph 29.0 mph 98 % 0.00 in
22:32 42.5 °F 42.0 °F 29.44 in NW 0.9 mph 29.0 mph 98 % 0.00 in
22:37 42.4 °F 41.9 °F 29.44 in WNW 2.0 mph 29.0 mph 98 % 0.00 in
22:42 42.4 °F 41.9 °F 29.44 in WNW 1.2 mph 29.0 mph 98 % 0.00 in
22:47 42.4 °F 41.9 °F 29.44 in WNW 2.1 mph 29.0 mph 98 % 0.00 in
22:52 42.4 °F 41.9 °F 29.43 in North 2.6 mph 29.0 mph 98 % 0.00 in
22:57 42.3 °F 41.8 °F 29.44 in NW 0.1 mph 29.0 mph 98 % 0.00 in
23:02 42.3 °F 41.8 °F 29.44 in NW 0.5 mph 29.0 mph 98 % 0.01 in
23:07 42.3 °F 41.8 °F 29.44 in NW 0.5 mph 29.0 mph 98 % 0.01 in
23:12 42.3 °F 41.8 °F 29.44 in NW 0.1 mph 29.0 mph 98 % 0.01 in
23:17 42.3 °F 41.8 °F 29.44 in NW 1.7 mph 29.0 mph 98 % 0.01 in
23:23 42.3 °F 41.8 °F 29.44 in West 3.2 mph 29.0 mph 98 % 0.01 in
23:28 42.3 °F 41.8 °F 29.44 in WNW 2.2 mph 29.0 mph 98 % 0.01 in
23:33 42.2 °F 41.7 °F 29.44 in NW 2.1 mph 29.0 mph 98 % 0.01 in
23:38 42.2 °F 41.7 °F 29.44 in WNW 1.7 mph 29.0 mph 98 % 0.01 in
23:43 42.2 °F 41.7 °F 29.43 in WNW 1.6 mph 29.0 mph 98 % 0.01 in
23:48 42.1 °F 41.6 °F 29.42 in WNW 3.1 mph 29.0 mph 98 % 0.01 in
23:53 42.1 °F 41.6 °F 29.42 in WNW 1.9 mph 29.0 mph 98 % 0.01 in
23:58 42.1 °F 41.6 °F 29.43 in WNW 1.1 mph 29.0 mph 98 % 0.01 in
Crab Meadow Weather
Compliments of Weather Underground - 3 mb

Script developed by  Jim McMurry - jmcmurry@mwt.net Adapted for the template by  Wim van der Kuil - Leuven-Template.eu

Lightning: Lightning's return stroke is hotter than the surface of the sun. Lightning is 50,000 degrees F. The sun is about 11,000 degrees F.